EW5799 Weather Reports


time (UTC)temp
C
wind
direction
speed
KPH
gust
KPH
rain 1hr
cm
rain 24hr
cm
rain mn
cm
humidity
%
barometer
mb
20211017154511 19 314 3.2 12.9 0.00 0.00 0.00 61 1025.9
20211017153005 19 239 4.8 12.9 0.00 0.00 0.00 59 1025.9
20211017151502 18 292 1.6 9.7 0.00 0.00 0.00 63 1026.0
20211017150001 18 342 6.4 16.1 0.00 0.00 0.00 62 1025.9
20211017144646 17 302 3.2 12.9 0.00 0.00 0.00 64 1025.9
20211017143152 17 336 8.0 12.9 0.00 0.00 0.00 64 1025.7
20211017141640 17 51 6.4 14.5 0.00 0.00 0.00 68 1025.6
20211017140115 16 352 6.4 12.9 0.00 0.00 0.00 73 1025.5
20211017134619 16 347 4.8 9.7 0.00 0.00 0.00 74 1025.5
20211017133120 15 337 4.8 9.7 0.00 0.00 0.00 77 1025.3
20211017131625 15 358 3.2 9.7 0.00 0.00 0.00 76 1025.2
20211017130047 15 335 4.8 8.0 0.00 0.00 0.00 78 1025.2
20211017124627 14 4 3.2 6.4 0.00 0.00 0.00 81 1024.9
20211017123045 13 330 3.2 6.4 0.00 0.00 0.00 81 1024.8
20211017121553 14 330 3.2 6.4 0.00 0.00 0.00 81 1024.8
20211017120038 13 326 3.2 4.8 0.00 0.00 0.00 82 1024.6
20211017114607 14 346 1.6 4.8 0.00 0.00 0.00 82 1024.6
20211017113054 14 349 1.6 3.2 0.00 0.00 0.00 82 1024.4
20211017111546 14 339 0.0 3.2 0.00 0.00 0.00 81 1024.4
20211017110142 15 346 1.6 3.2 0.00 0.00 0.00 78 1024.4
20211017104612 15 341 1.6 3.2 0.00 0.00 0.00 72 1024.3
20211017103041 15 348 1.6 3.2 0.00 0.00 0.00 71 1024.1
20211017101525 15 335 1.6 4.8 0.00 0.00 0.00 70 1024.1
20211017100044 15 357 1.6 3.2 0.00 0.00 0.00 71 1024.1
20211017094527 15 344 1.6 4.8 0.00 0.00 0.00 70 1024.2
20211017093021 15 345 1.6 4.8 0.00 0.00 0.00 72 1024.1
20211017091549 15 330 3.2 6.4 0.00 0.00 0.00 70 1023.9
20211017090025 15 326 3.2 4.8 0.00 0.00 0.00 72 1024.0
20211017084526 15 310 1.6 6.4 0.00 0.00 0.00 73 1024.0
20211017083040 16 338 3.2 4.8 0.00 0.00 0.00 73 1024.0
20211017081525 16 350 1.6 4.8 0.00 0.00 0.00 73 1024.1
20211017080006 16 338 1.6 4.8 0.00 0.00 0.00 69 1024.2
20211017074503 16 350 3.2 6.4 0.00 0.00 0.00 67 1024.0
20211017073003 16 356 3.2 6.4 0.00 0.00 0.00 67 1023.8
20211017071620 16 358 1.6 4.8 0.00 0.00 0.00 68 1023.8
20211017070122 17 349 1.6 6.4 0.00 0.00 0.00 64 1023.9
20211017064715 17 344 3.2 8.0 0.00 0.00 0.00 63 1023.9
20211017063125 17 11 3.2 8.0 0.00 0.00 0.00 65 1023.8
20211017061616 17 2 1.6 9.7 0.00 0.00 0.00 65 1023.8
20211017060128 17 343 4.8 8.0 0.00 0.00 0.00 61 1023.7
20211017054607 17 4 1.6 3.2 0.00 0.00 0.00 64 1023.7
20211017053106 18 350 3.2 6.4 0.00 0.00 0.00 56 1023.7
20211017051619 18 340 0.0 6.4 0.00 0.00 0.00 55 1023.8
20211017050114 18 15 3.2 8.0 0.00 0.00 0.00 54 1023.7
20211017044623 18 1 3.2 11.3 0.00 0.00 0.00 55 1023.6
20211017043129 18 338 3.2 8.0 0.00 0.00 0.00 56 1023.7
20211017041543 18 351 3.2 8.0 0.00 0.00 0.00 58 1023.7
20211017040051 18 314 1.6 4.8 0.00 0.00 0.00 62 1023.7
20211017034624 18 357 1.6 3.2 0.00 0.00 0.00 62 1023.8
20211017033104 18 32 1.6 4.8 0.00 0.00 0.00 62 1023.9
20211017031544 18 1 1.6 4.8 0.00 0.00 0.00 63 1023.8
20211017030109 18 342 1.6 4.8 0.00 0.00 0.00 59 1023.7
20211017024529 19 358 1.6 6.4 0.00 0.00 0.00 60 1023.7
20211017023044 19 347 3.2 6.4 0.00 0.00 0.00 58 1023.5
20211017021545 19 3 1.6 8.0 0.00 0.00 0.00 60 1023.5
20211017020046 19 347 1.6 4.8 0.00 0.00 0.00 59 1023.5
20211017014528 19 346 0.0 1.6 0.00 0.00 0.00 59 1023.3
20211017013103 20 13 1.6 6.4 0.00 0.00 0.00 55 1023.2
20211017011623 20 12 3.2 4.8 0.00 0.00 0.00 52 1023.1
20211017010213 20 330 3.2 4.8 0.00 0.00 0.00 52 1023.0
20211017004552 20 349 3.2 6.4 0.00 0.00 0.00 52 1022.9
20211017003047 20 4 4.8 9.7 0.00 0.00 0.00 53 1022.6
20211017001606 21 338 3.2 11.3 0.00 0.00 0.00 50 1022.5
20211017000041 21 349 4.8 9.7 0.00 0.00 0.00 46 1022.3
20211016234524 21 3 11.3 17.7 0.00 0.00 0.00 44 1022.2
20211016233022 21 340 8.0 17.7 0.00 0.00 0.00 44 1022.3
20211016231513 22 328 9.7 16.1 0.00 0.00 0.00 43 1022.2
20211016230007 22 347 9.7 19.3 0.00 0.00 0.00 42 1022.1
20211016224504 22 359 6.4 19.3 0.00 0.00 0.00 44 1022.0
20211016223002 22 6 6.4 22.5 0.00 0.00 0.00 44 1021.8
20211016221702 22 4 12.9 24.1 0.00 0.00 0.00 43 1021.7
20211016220157 22 350 11.3 24.1 0.00 0.00 0.00 42 1021.8
20211016214627 22 351 14.5 20.9 0.00 0.00 0.00 43 1021.9
20211016213029 22 334 12.9 27.4 0.00 0.00 0.00 44 1021.9
20211016211526 22 316 12.9 27.4 0.00 0.00 0.00 42 1021.9
20211016210103 22 334 11.3 22.5 0.00 0.00 0.00 43 1021.8
20211016204531 22 1 11.3 24.1 0.00 0.00 0.00 42 1022.0
20211016203042 22 356 16.1 27.4 0.00 0.00 0.00 43 1022.0
20211016201520 22 342 11.3 32.2 0.00 0.00 0.00 45 1022.2
20211016200025 22 347 14.5 27.4 0.00 0.00 0.00 43 1022.2
20211016194522 21 15 12.9 30.6 0.00 0.00 0.00 43 1022.2
20211016193027 21 333 14.5 22.5 0.00 0.00 0.00 47 1022.1
20211016191559 21 37 12.9 30.6 0.00 0.00 0.00 49 1022.4
20211016190032 21 338 11.3 24.1 0.00 0.00 0.00 49 1022.6
20211016184520 21 308 9.7 22.5 0.00 0.00 0.00 50 1022.7
20211016183009 21 21 14.5 27.4 0.00 0.00 0.00 48 1023.1
20211016181512 21 42 14.5 27.4 0.00 0.00 0.00 49 1023.4
20211016180020 20 358 16.1 24.1 0.00 0.00 0.00 52 1023.7
20211016174502 20 27 11.3 25.7 0.00 0.00 0.00 54 1023.9
20211016173257 20 329 11.3 20.9 0.00 0.00 0.00 54 1023.9
20211016171616 20 345 12.9 22.5 0.00 0.00 0.00 53 1024.0
20211016170050 20 356 14.5 25.7 0.00 0.00 0.00 52 1024.1
20211016164558 20 328 14.5 20.9 0.00 0.00 0.00 54 1024.1
20211016163059 19 352 12.9 27.4 0.00 0.00 0.00 57 1024.2
20211016161545 19 8 16.1 33.8 0.00 0.00 0.00 56 1024.3
20211016160110 18 348 9.7 25.7 0.00 0.00 0.00 59 1024.3